| time (UTC) | temp F | wind direction | speed MPH | gust MPH | rain 1hr in | rain 24hr in | rain mn in | humidity % | barometer mb |
| 20260831005834 | 88 | 276 | 1.0 | 6.0 | 0.00 | 0.00 | 0.00 | 53 | 1009.1 |
| 20260831005339 | 88 | 148 | 1.0 | 6.0 | 0.00 | 0.00 | 0.00 | 52 | 1009.1 |
| 20260831004823 | 88 | 231 | 1.0 | 5.0 | 0.00 | 0.00 | 0.00 | 52 | 1009.0 |
| 20260831004346 | 88 | 192 | 2.0 | 5.0 | 0.00 | 0.00 | 0.00 | 52 | 1009.1 |
| 20260831003825 | 88 | 219 | 1.0 | 5.0 | 0.00 | 0.00 | 0.00 | 52 | 1009.1 |
| 20260831003330 | 88 | 243 | 2.0 | 5.0 | 0.00 | 0.00 | 0.00 | 52 | 1009.1 |
| 20260831002837 | 89 | 165 | 2.0 | 3.0 | 0.00 | 0.00 | 0.00 | 52 | 1009.1 |
| 20260831001827 | 89 | 159 | 1.0 | 6.0 | 0.00 | 0.00 | 0.00 | 52 | 1008.9 |
| 20260831001334 | 89 | 212 | 2.0 | 6.0 | 0.00 | 0.00 | 0.00 | 53 | 1009.0 |
| 20260831000819 | 89 | 241 | 2.0 | 5.0 | 0.00 | 0.00 | 0.00 | 52 | 1009.0 |
| 20260831000325 | 89 | 179 | 2.0 | 5.0 | 0.00 | 0.00 | 0.00 | 52 | 1008.9 |
| 20260830235833 | 89 | 229 | 2.0 | 6.0 | 0.00 | 0.00 | 0.00 | 52 | 1008.9 |
| 20260830235333 | 89 | 157 | 1.0 | 6.0 | 0.00 | 0.00 | 0.00 | 53 | 1008.9 |
| 20260830234839 | 89 | 205 | 1.0 | 6.0 | 0.00 | 0.00 | 0.00 | 53 | 1008.9 |
| 20260830234320 | 89 | 259 | 1.0 | 6.0 | 0.00 | 0.00 | 0.00 | 53 | 1008.9 |
| 20260830233828 | 90 | 229 | 2.0 | 4.0 | 0.00 | 0.00 | 0.00 | 53 | 1009.0 |
| 20260830233328 | 89 | 173 | 2.0 | 4.0 | 0.00 | 0.00 | 0.00 | 53 | 1008.9 |
| 20260830232835 | 90 | 206 | 2.0 | 5.0 | 0.00 | 0.00 | 0.00 | 53 | 1009.0 |
| 20260830232336 | 90 | 197 | 2.0 | 7.0 | 0.00 | 0.00 | 0.00 | 53 | 1009.0 |
| 20260830231823 | 90 | 264 | 2.0 | 8.0 | 0.00 | 0.00 | 0.00 | 53 | 1009.0 |
| 20260830231325 | 90 | 239 | 5.0 | 8.0 | 0.00 | 0.00 | 0.00 | 52 | 1009.0 |
| 20260830230831 | 90 | 269 | 2.0 | 7.0 | 0.00 | 0.00 | 0.00 | 52 | 1009.1 |
| 20260830230354 | 90 | 250 | 2.0 | 9.0 | 0.00 | 0.00 | 0.00 | 52 | 1009.1 |
| 20260830225823 | 90 | 131 | 3.0 | 9.0 | 0.00 | 0.00 | 0.00 | 52 | 1009.1 |
| 20260830225330 | 91 | 221 | 2.0 | 5.0 | 0.00 | 0.00 | 0.00 | 52 | 1009.1 |
| 20260830224830 | 91 | 328 | 3.0 | 5.0 | 0.00 | 0.00 | 0.00 | 52 | 1009.2 |
| 20260830224336 | 91 | 263 | 1.0 | 7.0 | 0.00 | 0.00 | 0.00 | 51 | 1009.2 |
| 20260830223837 | 91 | 238 | 2.0 | 8.0 | 0.00 | 0.00 | 0.00 | 51 | 1009.4 |
| 20260830223358 | 91 | 203 | 3.0 | 8.0 | 0.00 | 0.00 | 0.00 | 51 | 1009.4 |
| 20260830222823 | 91 | 229 | 2.0 | 6.0 | 0.00 | 0.00 | 0.00 | 52 | 1009.4 |
| 20260830222326 | 91 | 255 | 2.0 | 5.0 | 0.00 | 0.00 | 0.00 | 52 | 1009.5 |
| 20260830221853 | 91 | 222 | 2.0 | 4.0 | 0.00 | 0.00 | 0.00 | 51 | 1009.6 |
| 20260830221333 | 91 | 272 | 1.0 | 7.0 | 0.00 | 0.00 | 0.00 | 51 | 1009.7 |
| 20260830220900 | 91 | 235 | 2.0 | 7.0 | 0.00 | 0.00 | 0.00 | 51 | 1009.8 |
| 20260830220359 | 92 | 262 | 3.0 | 6.0 | 0.00 | 0.00 | 0.00 | 50 | 1009.8 |
| 20260830215839 | 92 | 262 | 0.0 | 6.0 | 0.00 | 0.00 | 0.00 | 48 | 1009.8 |
| 20260830214820 | 92 | 155 | 3.0 | 8.0 | 0.00 | 0.00 | 0.00 | 47 | 1010.0 |
| 20260830214341 | 92 | 179 | 1.0 | 7.0 | 0.00 | 0.00 | 0.00 | 47 | 1010.1 |
| 20260830213837 | 92 | 123 | 3.0 | 7.0 | 0.00 | 0.00 | 0.00 | 47 | 1010.2 |
| 20260830213320 | 92 | 226 | 2.0 | 6.0 | 0.00 | 0.00 | 0.00 | 48 | 1010.2 |
| 20260830212826 | 92 | 269 | 2.0 | 4.0 | 0.00 | 0.00 | 0.00 | 46 | 1010.2 |
| 20260830212327 | 93 | 274 | 1.0 | 6.0 | 0.00 | 0.00 | 0.00 | 44 | 1010.3 |
| 20260830211829 | 93 | 141 | 2.0 | 7.0 | 0.00 | 0.00 | 0.00 | 44 | 1010.4 |
| 20260830211330 | 93 | 225 | 2.0 | 7.0 | 0.00 | 0.00 | 0.00 | 43 | 1010.4 |
| 20260830210831 | 93 | 161 | 1.0 | 7.0 | 0.00 | 0.00 | 0.00 | 44 | 1010.4 |
| 20260830210332 | 93 | 232 | 3.0 | 7.0 | 0.00 | 0.00 | 0.00 | 44 | 1010.4 |
| 20260830205833 | 92 | 174 | 3.0 | 6.0 | 0.00 | 0.00 | 0.00 | 44 | 1010.4 |
| 20260830205330 | 93 | 200 | 2.0 | 9.0 | 0.00 | 0.00 | 0.00 | 45 | 1010.5 |
| 20260830204835 | 93 | 284 | 2.0 | 6.0 | 0.00 | 0.00 | 0.00 | 44 | 1010.5 |
| 20260830204356 | 93 | 227 | 2.0 | 6.0 | 0.00 | 0.00 | 0.00 | 44 | 1010.5 |
| 20260830203820 | 93 | 277 | 3.0 | 6.0 | 0.00 | 0.00 | 0.00 | 45 | 1010.6 |
| 20260830203325 | 93 | 211 | 3.0 | 6.0 | 0.00 | 0.00 | 0.00 | 46 | 1010.6 |
| 20260830202849 | 93 | 215 | 1.0 | 6.0 | 0.00 | 0.00 | 0.00 | 46 | 1010.6 |
| 20260830202326 | 92 | 176 | 1.0 | 6.0 | 0.00 | 0.00 | 0.00 | 47 | 1010.6 |
| 20260830201826 | 92 | 123 | 3.0 | 6.0 | 0.00 | 0.00 | 0.00 | 47 | 1010.6 |
| 20260830201328 | 92 | 340 | 2.0 | 5.0 | 0.00 | 0.00 | 0.00 | 47 | 1010.7 |
| 20260830200836 | 92 | 195 | 3.0 | 5.0 | 0.00 | 0.00 | 0.00 | 48 | 1010.7 |
| 20260830200358 | 91 | 203 | 3.0 | 6.0 | 0.00 | 0.00 | 0.00 | 48 | 1010.7 |
| 20260830195823 | 91 | 139 | 3.0 | 6.0 | 0.00 | 0.00 | 0.00 | 48 | 1010.7 |
| 20260830195329 | 92 | 93 | 2.0 | 4.0 | 0.00 | 0.00 | 0.00 | 49 | 1010.7 |
| 20260830194828 | 92 | 201 | 2.0 | 4.0 | 0.00 | 0.00 | 0.00 | 48 | 1010.7 |
| 20260830194351 | 91 | 245 | 1.0 | 4.0 | 0.00 | 0.00 | 0.00 | 49 | 1010.8 |
| 20260830193855 | 91 | 233 | 2.0 | 4.0 | 0.00 | 0.00 | 0.00 | 50 | 1010.9 |
| 20260830193336 | 90 | 157 | 2.0 | 4.0 | 0.00 | 0.00 | 0.00 | 51 | 1010.9 |
| 20260830192837 | 91 | 260 | 2.0 | 5.0 | 0.00 | 0.00 | 0.00 | 51 | 1011.0 |
| 20260830192338 | 90 | 298 | 2.0 | 5.0 | 0.00 | 0.00 | 0.00 | 52 | 1011.0 |
| 20260830191858 | 89 | 193 | 2.0 | 7.0 | 0.00 | 0.00 | 0.00 | 53 | 1011.1 |
| 20260830191318 | 89 | 259 | 3.0 | 7.0 | 0.00 | 0.00 | 0.00 | 53 | 1011.0 |
| 20260830190842 | 89 | 219 | 1.0 | 5.0 | 0.00 | 0.00 | 0.00 | 53 | 1011.1 |
| 20260830190319 | 89 | 155 | 3.0 | 4.0 | 0.00 | 0.00 | 0.00 | 54 | 1011.2 |
| 20260830185819 | 88 | 254 | 1.0 | 5.0 | 0.00 | 0.00 | 0.00 | 54 | 1011.1 |
| 20260830185336 | 89 | 231 | 2.0 | 5.0 | 0.00 | 0.00 | 0.00 | 54 | 1011.2 |
| 20260830184837 | 89 | 143 | 2.0 | 5.0 | 0.00 | 0.00 | 0.00 | 54 | 1011.2 |
| 20260830183836 | 88 | 153 | 2.0 | 4.0 | 0.00 | 0.00 | 0.00 | 56 | 1011.2 |
| 20260830183333 | 87 | 143 | 1.0 | 4.0 | 0.00 | 0.00 | 0.00 | 57 | 1011.1 |
| 20260830182834 | 87 | 168 | 2.0 | 4.0 | 0.00 | 0.00 | 0.00 | 57 | 1011.2 |
| 20260830182336 | 87 | 145 | 1.0 | 4.0 | 0.00 | 0.00 | 0.00 | 57 | 1011.3 |
| 20260830181857 | 87 | 278 | 1.0 | 4.0 | 0.00 | 0.00 | 0.00 | 57 | 1011.4 |
| 20260830181319 | 86 | 143 | 1.0 | 4.0 | 0.00 | 0.00 | 0.00 | 58 | 1011.4 |
| 20260830180819 | 86 | 124 | 3.0 | 4.0 | 0.00 | 0.00 | 0.00 | 58 | 1011.3 |
| 20260830180341 | 87 | 236 | 2.0 | 4.0 | 0.00 | 0.00 | 0.00 | 58 | 1011.3 |
| 20260830175820 | 86 | 150 | 1.0 | 3.0 | 0.00 | 0.00 | 0.00 | 58 | 1011.3 |
| 20260830175321 | 86 | 162 | 2.0 | 4.0 | 0.00 | 0.00 | 0.00 | 59 | 1011.3 |
| 20260830174821 | 85 | 210 | 1.0 | 5.0 | 0.00 | 0.00 | 0.00 | 60 | 1011.3 |
| 20260830174324 | 85 | 162 | 2.0 | 4.0 | 0.00 | 0.00 | 0.00 | 60 | 1011.3 |
| 20260830173828 | 85 | 187 | 2.0 | 4.0 | 0.00 | 0.00 | 0.00 | 60 | 1011.2 |
| 20260830173330 | 85 | 116 | 3.0 | 4.0 | 0.00 | 0.00 | 0.00 | 60 | 1011.2 |
| 20260830172830 | 85 | 260 | 1.0 | 4.0 | 0.00 | 0.00 | 0.00 | 61 | 1011.3 |
| 20260830172352 | 85 | 186 | 2.0 | 4.0 | 0.00 | 0.00 | 0.00 | 60 | 1011.3 |
| 20260830171833 | 84 | 122 | 1.0 | 5.0 | 0.00 | 0.00 | 0.00 | 61 | 1011.2 |
| 20260830171337 | 84 | 176 | 2.0 | 5.0 | 0.00 | 0.00 | 0.00 | 60 | 1011.2 |
| 20260830170825 | 84 | 130 | 2.0 | 5.0 | 0.00 | 0.00 | 0.00 | 61 | 1011.2 |
| 20260830170325 | 84 | 148 | 1.0 | 3.0 | 0.00 | 0.00 | 0.00 | 61 | 1011.1 |
| 20260830165827 | 84 | 174 | 1.0 | 3.0 | 0.00 | 0.00 | 0.00 | 63 | 1011.1 |
| 20260830165328 | 83 | 148 | 0.0 | 3.0 | 0.00 | 0.00 | 0.00 | 64 | 1011.2 |
| 20260830164831 | 82 | 179 | 0.0 | 3.0 | 0.00 | 0.00 | 0.00 | 65 | 1011.2 |
| 20260830164331 | 82 | 161 | 1.0 | 3.0 | 0.00 | 0.00 | 0.00 | 64 | 1011.2 |
| 20260830163831 | 82 | 120 | 1.0 | 4.0 | 0.00 | 0.00 | 0.00 | 64 | 1011.2 |
| 20260830163332 | 82 | 164 | 1.0 | 4.0 | 0.00 | 0.00 | 0.00 | 64 | 1011.2 |
| 20260830162832 | 82 | 133 | 1.0 | 3.0 | 0.00 | 0.00 | 0.00 | 64 | 1011.2 |
| 20260830162333 | 81 | 167 | 2.0 | 3.0 | 0.00 | 0.00 | 0.00 | 64 | 1011.2 |
| 20260830161835 | 81 | 207 | 1.0 | 3.0 | 0.00 | 0.00 | 0.00 | 64 | 1011.2 |
| 20260830161334 | 81 | 212 | 0.0 | 2.0 | 0.00 | 0.00 | 0.00 | 65 | 1011.1 |
| 20260830160835 | 80 | 174 | 1.0 | 3.0 | 0.00 | 0.00 | 0.00 | 65 | 1011.2 |
| 20260830160354 | 80 | 225 | 1.0 | 2.0 | 0.00 | 0.00 | 0.00 | 65 | 1011.2 |
| 20260830155835 | 80 | 159 | 1.0 | 3.0 | 0.00 | 0.00 | 0.00 | 66 | 1011.2 |
| 20260830155354 | 79 | 165 | 0.0 | 3.0 | 0.00 | 0.00 | 0.00 | 66 | 1011.2 |
| 20260830154833 | 79 | 117 | 1.0 | 2.0 | 0.00 | 0.00 | 0.00 | 67 | 1011.2 |
| 20260830154353 | 79 | 150 | 1.0 | 3.0 | 0.00 | 0.00 | 0.00 | 66 | 1011.1 |
| 20260830153834 | 79 | 142 | 1.0 | 3.0 | 0.00 | 0.00 | 0.00 | 66 | 1011.1 |
| 20260830153319 | 79 | 151 | 0.0 | 0.0 | 0.00 | 0.00 | 0.00 | 68 | 1011.1 |
| 20260830152820 | 78 | 151 | 0.0 | 0.0 | 0.00 | 0.00 | 0.00 | 69 | 1011.2 |
| 20260830152338 | 79 | 151 | 0.0 | 0.0 | 0.00 | 0.00 | 0.00 | 68 | 1011.2 |
| 20260830151822 | 79 | 184 | 0.0 | 0.0 | 0.00 | 0.00 | 0.00 | 68 | 1011.3 |
| 20260830151324 | 79 | 146 | 0.0 | 0.0 | 0.00 | 0.00 | 0.00 | 69 | 1011.3 |
| 20260830150846 | 79 | 146 | 0.0 | 0.0 | 0.00 | 0.00 | 0.00 | 70 | 1011.3 |
| 20260830150327 | 77 | 150 | 0.0 | 0.0 | 0.00 | 0.00 | 0.00 | 73 | 1011.3 |
| 20260830145831 | 76 | 150 | 0.0 | 0.0 | 0.00 | 0.00 | 0.00 | 75 | 1011.3 |
| 20260830145338 | 75 | 163 | 0.0 | 1.0 | 0.00 | 0.00 | 0.00 | 76 | 1011.3 |
| 20260830144858 | 74 | 144 | 0.0 | 1.0 | 0.00 | 0.00 | 0.00 | 77 | 1011.3 |
| 20260830144359 | 73 | 145 | 0.0 | 1.0 | 0.00 | 0.00 | 0.00 | 81 | 1011.2 |
| 20260830143841 | 71 | 146 | 0.0 | 1.0 | 0.00 | 0.00 | 0.00 | 84 | 1011.3 |
| 20260830143321 | 70 | 146 | 0.0 | 0.0 | 0.00 | 0.00 | 0.00 | 86 | 1011.2 |
| 20260830142850 | 69 | 146 | 0.0 | 0.0 | 0.00 | 0.00 | 0.00 | 87 | 1011.2 |
| 20260830142328 | 69 | 145 | 0.0 | 0.0 | 0.00 | 0.00 | 0.00 | 87 | 1011.2 |
| 20260830141832 | 69 | 146 | 0.0 | 0.0 | 0.00 | 0.00 | 0.00 | 87 | 1011.2 |
| 20260830141352 | 69 | 146 | 0.0 | 0.0 | 0.00 | 0.00 | 0.00 | 87 | 1011.1 |
| 20260830140837 | 68 | 145 | 0.0 | 0.0 | 0.00 | 0.00 | 0.00 | 87 | 1011.1 |
| 20260830140333 | 68 | 146 | 0.0 | 0.0 | 0.00 | 0.00 | 0.00 | 87 | 1011.0 |
| 20260830135835 | 68 | 146 | 0.0 | 0.0 | 0.00 | 0.00 | 0.00 | 87 | 1010.9 |
| 20260830135335 | 68 | 146 | 0.0 | 0.0 | 0.00 | 0.00 | 0.00 | 87 | 1010.9 |
| 20260830134837 | 68 | 146 | 0.0 | 0.0 | 0.00 | 0.00 | 0.00 | 87 | 1010.8 |
| 20260830134358 | 68 | 146 | 0.0 | 0.0 | 0.00 | 0.00 | 0.00 | 87 | 1010.8 |
| 20260830133838 | 68 | 145 | 0.0 | 0.0 | 0.00 | 0.00 | 0.00 | 87 | 1010.7 |
| 20260830132835 | 68 | 145 | 0.0 | 0.0 | 0.00 | 0.00 | 0.00 | 87 | 1010.6 |
| 20260830132337 | 68 | 145 | 0.0 | 0.0 | 0.00 | 0.00 | 0.00 | 87 | 1010.6 |
| 20260830131838 | 68 | 145 | 0.0 | 0.0 | 0.00 | 0.00 | 0.00 | 86 | 1010.6 |
| 20260830131319 | 68 | 146 | 0.0 | 0.0 | 0.00 | 0.00 | 0.00 | 86 | 1010.5 |
| 20260830130820 | 68 | 146 | 0.0 | 0.0 | 0.00 | 0.00 | 0.00 | 86 | 1010.5 |
| 20260830130320 | 68 | 145 | 0.0 | 0.0 | 0.00 | 0.00 | 0.00 | 86 | 1010.5 |
| 20260830125820 | 68 | 145 | 0.0 | 0.0 | 0.00 | 0.00 | 0.00 | 86 | 1010.4 |
| 20260830125326 | 68 | 146 | 0.0 | 0.0 | 0.00 | 0.00 | 0.00 | 86 | 1010.4 |
| 20260830124829 | 68 | 146 | 0.0 | 0.0 | 0.00 | 0.00 | 0.00 | 86 | 1010.3 |
| 20260830124352 | 68 | 145 | 0.0 | 0.0 | 0.00 | 0.00 | 0.00 | 86 | 1010.3 |
| 20260830123833 | 68 | 146 | 0.0 | 0.0 | 0.00 | 0.00 | 0.00 | 86 | 1010.3 |
| 20260830123337 | 69 | 146 | 0.0 | 0.0 | 0.00 | 0.00 | 0.00 | 86 | 1010.3 |
| 20260830122820 | 69 | 146 | 0.0 | 0.0 | 0.00 | 0.00 | 0.00 | 86 | 1010.2 |
| 20260830122319 | 69 | 145 | 0.0 | 0.0 | 0.00 | 0.00 | 0.00 | 85 | 1010.1 |
| 20260830121821 | 69 | 145 | 0.0 | 0.0 | 0.00 | 0.00 | 0.00 | 85 | 1010.1 |
| 20260830121323 | 69 | 145 | 0.0 | 0.0 | 0.00 | 0.00 | 0.00 | 85 | 1010.1 |
| 20260830120824 | 69 | 145 | 0.0 | 0.0 | 0.00 | 0.00 | 0.00 | 84 | 1010.1 |
| 20260830120324 | 69 | 145 | 0.0 | 0.0 | 0.00 | 0.00 | 0.00 | 84 | 1010.1 |
| 20260830115824 | 69 | 145 | 0.0 | 0.0 | 0.00 | 0.00 | 0.00 | 84 | 1010.1 |
| 20260830115324 | 70 | 145 | 0.0 | 0.0 | 0.00 | 0.00 | 0.00 | 84 | 1010.1 |
| 20260830114826 | 70 | 145 | 0.0 | 0.0 | 0.00 | 0.00 | 0.00 | 83 | 1010.1 |
| 20260830114325 | 70 | 145 | 0.0 | 0.0 | 0.00 | 0.00 | 0.00 | 83 | 1010.2 |
| 20260830113829 | 70 | 145 | 0.0 | 0.0 | 0.00 | 0.00 | 0.00 | 83 | 1010.1 |
| 20260830112824 | 70 | 145 | 0.0 | 0.0 | 0.00 | 0.00 | 0.00 | 83 | 1010.0 |
| 20260830112322 | 70 | 146 | 0.0 | 0.0 | 0.00 | 0.00 | 0.00 | 83 | 1010.0 |
| 20260830111819 | 70 | 145 | 0.0 | 0.0 | 0.00 | 0.00 | 0.00 | 83 | 1010.0 |
| 20260830110856 | 70 | 146 | 0.0 | 0.0 | 0.00 | 0.00 | 0.00 | 82 | 1009.9 |
| 20260830110335 | 70 | 145 | 0.0 | 0.0 | 0.00 | 0.00 | 0.00 | 82 | 1009.9 |
| 20260830105833 | 70 | 145 | 0.0 | 0.0 | 0.00 | 0.00 | 0.00 | 82 | 1009.9 |
| 20260830105333 | 70 | 146 | 0.0 | 0.0 | 0.00 | 0.00 | 0.00 | 82 | 1009.9 |
| 20260830104851 | 70 | 145 | 0.0 | 0.0 | 0.00 | 0.00 | 0.00 | 81 | 1009.9 |
| 20260830104329 | 70 | 145 | 0.0 | 0.0 | 0.00 | 0.00 | 0.00 | 81 | 1009.9 |
| 20260830103830 | 70 | 146 | 0.0 | 0.0 | 0.00 | 0.00 | 0.00 | 82 | 1010.0 |
| 20260830103329 | 70 | 145 | 0.0 | 0.0 | 0.00 | 0.00 | 0.00 | 82 | 1010.0 |
| 20260830102849 | 70 | 145 | 0.0 | 0.0 | 0.00 | 0.00 | 0.00 | 82 | 1010.0 |
| 20260830102330 | 70 | 146 | 0.0 | 0.0 | 0.00 | 0.00 | 0.00 | 82 | 1010.0 |
| 20260830101851 | 70 | 146 | 0.0 | 0.0 | 0.00 | 0.00 | 0.00 | 82 | 1010.0 |
| 20260830101349 | 70 | 145 | 0.0 | 0.0 | 0.00 | 0.00 | 0.00 | 81 | 1009.9 |
| 20260830100827 | 70 | 145 | 0.0 | 0.0 | 0.00 | 0.00 | 0.00 | 81 | 1009.9 |
| 20260830100325 | 70 | 146 | 0.0 | 0.0 | 0.00 | 0.00 | 0.00 | 81 | 1009.8 |
| 20260830095826 | 71 | 145 | 0.0 | 0.0 | 0.00 | 0.00 | 0.00 | 81 | 1009.8 |
| 20260830095329 | 71 | 146 | 0.0 | 0.0 | 0.00 | 0.00 | 0.00 | 81 | 1009.8 |
| 20260830094829 | 71 | 145 | 0.0 | 0.0 | 0.00 | 0.00 | 0.00 | 81 | 1009.8 |
| 20260830094330 | 71 | 145 | 0.0 | 0.0 | 0.00 | 0.00 | 0.00 | 80 | 1009.9 |
| 20260830093828 | 71 | 145 | 0.0 | 0.0 | 0.00 | 0.00 | 0.00 | 80 | 1009.8 |
| 20260830093349 | 71 | 145 | 0.0 | 0.0 | 0.00 | 0.00 | 0.00 | 80 | 1009.9 |
| 20260830092346 | 71 | 145 | 0.0 | 0.0 | 0.00 | 0.00 | 0.00 | 80 | 1009.9 |
| 20260830091825 | 71 | 145 | 0.0 | 0.0 | 0.00 | 0.00 | 0.00 | 79 | 1009.9 |
| 20260830091322 | 71 | 145 | 0.0 | 0.0 | 0.00 | 0.00 | 0.00 | 79 | 1009.9 |
| 20260830090859 | 72 | 145 | 0.0 | 0.0 | 0.00 | 0.00 | 0.00 | 79 | 1009.9 |
| 20260830090319 | 72 | 146 | 0.0 | 0.0 | 0.00 | 0.00 | 0.00 | 79 | 1009.9 |
| 20260830085330 | 72 | 145 | 0.0 | 0.0 | 0.00 | 0.00 | 0.00 | 78 | 1010.0 |
| 20260830084828 | 72 | 146 | 0.0 | 0.0 | 0.00 | 0.00 | 0.00 | 78 | 1010.1 |
| 20260830084328 | 72 | 145 | 0.0 | 0.0 | 0.00 | 0.00 | 0.00 | 78 | 1010.1 |
| 20260830083821 | 72 | 145 | 0.0 | 0.0 | 0.00 | 0.00 | 0.00 | 78 | 1010.0 |
| 20260830083400 | 72 | 145 | 0.0 | 0.0 | 0.00 | 0.00 | 0.00 | 78 | 1009.9 |
| 20260830082832 | 72 | 145 | 0.0 | 0.0 | 0.00 | 0.00 | 0.00 | 77 | 1010.0 |
| 20260830082328 | 72 | 146 | 0.0 | 0.0 | 0.00 | 0.00 | 0.00 | 77 | 1009.9 |
| 20260830081824 | 72 | 145 | 0.0 | 0.0 | 0.00 | 0.00 | 0.00 | 78 | 1010.0 |
| 20260830081344 | 72 | 145 | 0.0 | 0.0 | 0.00 | 0.00 | 0.00 | 77 | 1010.1 |
| 20260830080836 | 72 | 146 | 0.0 | 0.0 | 0.00 | 0.00 | 0.00 | 77 | 1010.1 |
| 20260830080336 | 72 | 146 | 0.0 | 0.0 | 0.00 | 0.00 | 0.00 | 77 | 1010.0 |
| 20260830075320 | 73 | 145 | 0.0 | 0.0 | 0.00 | 0.00 | 0.00 | 77 | 1010.1 |
| 20260830074834 | 73 | 146 | 0.0 | 0.0 | 0.00 | 0.00 | 0.00 | 77 | 1010.0 |
| 20260830074337 | 73 | 145 | 0.0 | 0.0 | 0.00 | 0.00 | 0.00 | 76 | 1010.1 |
| 20260830073835 | 73 | 145 | 0.0 | 0.0 | 0.00 | 0.00 | 0.00 | 76 | 1010.0 |
| 20260830073354 | 73 | 145 | 0.0 | 0.0 | 0.00 | 0.00 | 0.00 | 76 | 1010.0 |
| 20260830072856 | 73 | 145 | 0.0 | 0.0 | 0.00 | 0.00 | 0.00 | 76 | 1010.1 |
| 20260830072335 | 73 | 145 | 0.0 | 0.0 | 0.00 | 0.00 | 0.00 | 75 | 1010.1 |
| 20260830071835 | 73 | 145 | 0.0 | 0.0 | 0.00 | 0.00 | 0.00 | 75 | 1010.1 |
| 20260830071334 | 73 | 146 | 0.0 | 0.0 | 0.00 | 0.00 | 0.00 | 75 | 1010.1 |
| 20260830070834 | 73 | 145 | 0.0 | 0.0 | 0.00 | 0.00 | 0.00 | 75 | 1010.0 |
| 20260830070332 | 73 | 145 | 0.0 | 0.0 | 0.00 | 0.00 | 0.00 | 75 | 1010.0 |
| 20260830065832 | 73 | 145 | 0.0 | 0.0 | 0.00 | 0.00 | 0.00 | 75 | 1010.0 |
| 20260830065353 | 74 | 145 | 0.0 | 0.0 | 0.00 | 0.00 | 0.00 | 74 | 1010.0 |
| 20260830064832 | 74 | 145 | 0.0 | 0.0 | 0.00 | 0.00 | 0.00 | 74 | 1010.1 |
| 20260830064328 | 74 | 145 | 0.0 | 0.0 | 0.00 | 0.00 | 0.00 | 74 | 1010.0 |
| 20260830063825 | 74 | 146 | 0.0 | 1.0 | 0.00 | 0.00 | 0.00 | 73 | 1010.0 |
| 20260830063325 | 74 | 146 | 0.0 | 1.0 | 0.00 | 0.00 | 0.00 | 73 | 1009.9 |
| 20260830062828 | 74 | 146 | 0.0 | 1.0 | 0.00 | 0.00 | 0.00 | 73 | 1009.8 |
| 20260830062330 | 75 | 146 | 0.0 | 2.0 | 0.00 | 0.00 | 0.00 | 73 | 1009.8 |
| 20260830061831 | 75 | 158 | 0.0 | 2.0 | 0.00 | 0.00 | 0.00 | 72 | 1009.7 |
| 20260830061330 | 75 | 142 | 0.0 | 2.0 | 0.00 | 0.00 | 0.00 | 72 | 1009.7 |
| 20260830060829 | 75 | 139 | 0.0 | 2.0 | 0.00 | 0.00 | 0.00 | 71 | 1009.7 |
| 20260830060326 | 75 | 139 | 0.0 | 2.0 | 0.00 | 0.00 | 0.00 | 71 | 1009.8 |
| 20260830055844 | 75 | 136 | 1.0 | 2.0 | 0.00 | 0.00 | 0.00 | 70 | 1009.8 |
| 20260830055320 | 75 | 144 | 0.0 | 1.0 | 0.00 | 0.00 | 0.00 | 70 | 1009.7 |
| 20260830054821 | 76 | 144 | 0.0 | 0.0 | 0.00 | 0.00 | 0.00 | 70 | 1009.7 |
| 20260830054323 | 76 | 144 | 0.0 | 0.0 | 0.00 | 0.00 | 0.00 | 70 | 1009.6 |
| 20260830053842 | 76 | 144 | 0.0 | 1.0 | 0.00 | 0.00 | 0.00 | 70 | 1009.7 |
| 20260830053344 | 76 | 144 | 0.0 | 1.0 | 0.00 | 0.00 | 0.00 | 70 | 1009.6 |
| 20260830052841 | 76 | 144 | 0.0 | 0.0 | 0.00 | 0.00 | 0.00 | 70 | 1009.6 |
| 20260830052319 | 76 | 144 | 0.0 | 2.0 | 0.00 | 0.00 | 0.00 | 70 | 1009.6 |
| 20260830051822 | 76 | 144 | 1.0 | 2.0 | 0.00 | 0.00 | 0.00 | 70 | 1009.7 |
| 20260830051343 | 77 | 120 | 0.0 | 0.0 | 0.00 | 0.00 | 0.00 | 70 | 1009.7 |
| 20260830050323 | 77 | 120 | 0.0 | 0.0 | 0.00 | 0.00 | 0.00 | 70 | 1009.8 |
| 20260830045843 | 77 | 120 | 0.0 | 0.0 | 0.00 | 0.00 | 0.00 | 70 | 1009.7 |
| 20260830045320 | 77 | 120 | 0.0 | 0.0 | 0.00 | 0.00 | 0.00 | 70 | 1009.6 |
| 20260830044841 | 77 | 120 | 0.0 | 0.0 | 0.00 | 0.00 | 0.00 | 70 | 1009.7 |
| 20260830044326 | 77 | 120 | 0.0 | 0.0 | 0.00 | 0.00 | 0.00 | 69 | 1009.7 |
| 20260830043827 | 78 | 120 | 0.0 | 0.0 | 0.00 | 0.00 | 0.00 | 69 | 1009.7 |
| 20260830043349 | 78 | 120 | 0.0 | 0.0 | 0.00 | 0.00 | 0.00 | 68 | 1009.7 |
| 20260830042831 | 78 | 120 | 0.0 | 1.0 | 0.00 | 0.00 | 0.00 | 68 | 1009.7 |
| 20260830042333 | 79 | 120 | 0.0 | 1.0 | 0.00 | 0.00 | 0.00 | 68 | 1009.7 |
| 20260830041833 | 79 | 120 | 0.0 | 1.0 | 0.00 | 0.00 | 0.00 | 67 | 1009.6 |
| 20260830041355 | 79 | 96 | 0.0 | 1.0 | 0.00 | 0.00 | 0.00 | 67 | 1009.7 |
| 20260830040856 | 79 | 135 | 0.0 | 2.0 | 0.00 | 0.00 | 0.00 | 67 | 1009.7 |
| 20260830040337 | 80 | 135 | 1.0 | 2.0 | 0.00 | 0.00 | 0.00 | 66 | 1009.7 |
| 20260830035838 | 80 | 149 | 0.0 | 2.0 | 0.00 | 0.00 | 0.00 | 65 | 1009.6 |
| 20260830035338 | 80 | 171 | 0.0 | 0.0 | 0.00 | 0.00 | 0.00 | 64 | 1009.6 |
| 20260830034837 | 81 | 195 | 0.0 | 1.0 | 0.00 | 0.00 | 0.00 | 64 | 1009.5 |
| 20260830033856 | 81 | 152 | 0.0 | 0.0 | 0.00 | 0.00 | 0.00 | 62 | 1009.3 |
| 20260830033335 | 81 | 150 | 0.0 | 2.0 | 0.00 | 0.00 | 0.00 | 61 | 1009.2 |
| 20260830032836 | 82 | 150 | 0.0 | 2.0 | 0.00 | 0.00 | 0.00 | 60 | 1009.2 |
| 20260830032336 | 82 | 139 | 0.0 | 0.0 | 0.00 | 0.00 | 0.00 | 60 | 1009.2 |
| 20260830031820 | 82 | 145 | 0.0 | 0.0 | 0.00 | 0.00 | 0.00 | 58 | 1009.1 |
| 20260830031321 | 82 | 146 | 0.0 | 1.0 | 0.00 | 0.00 | 0.00 | 58 | 1009.1 |
| 20260830030823 | 83 | 146 | 0.0 | 1.0 | 0.00 | 0.00 | 0.00 | 58 | 1009.1 |
| 20260830030324 | 83 | 231 | 0.0 | 2.0 | 0.00 | 0.00 | 0.00 | 57 | 1009.1 |
| 20260830025822 | 83 | 205 | 0.0 | 2.0 | 0.00 | 0.00 | 0.00 | 56 | 1009.0 |
| 20260830025323 | 84 | 145 | 0.0 | 2.0 | 0.00 | 0.00 | 0.00 | 55 | 1009.0 |
| 20260830024845 | 84 | 181 | 0.0 | 2.0 | 0.00 | 0.00 | 0.00 | 54 | 1008.9 |
| 20260830024343 | 85 | 203 | 0.0 | 1.0 | 0.00 | 0.00 | 0.00 | 54 | 1008.9 |
| 20260830023821 | 85 | 203 | 0.0 | 1.0 | 0.00 | 0.00 | 0.00 | 53 | 1008.9 |
| 20260830023339 | 85 | 186 | 0.0 | 1.0 | 0.00 | 0.00 | 0.00 | 52 | 1008.8 |
| 20260830022839 | 86 | 217 | 0.0 | 1.0 | 0.00 | 0.00 | 0.00 | 52 | 1008.8 |
| 20260830022335 | 86 | 226 | 0.0 | 1.0 | 0.00 | 0.00 | 0.00 | 52 | 1008.8 |
| 20260830021333 | 87 | 153 | 0.0 | 0.0 | 0.00 | 0.00 | 0.00 | 50 | 1008.8 |
| 20260830020831 | 87 | 269 | 0.0 | 1.0 | 0.00 | 0.00 | 0.00 | 49 | 1008.8 |
| 20260830020331 | 87 | 282 | 0.0 | 2.0 | 0.00 | 0.00 | 0.00 | 48 | 1008.8 |
| 20260830015830 | 88 | 251 | 0.0 | 2.0 | 0.00 | 0.00 | 0.00 | 47 | 1008.7 |
| 20260830015331 | 88 | 252 | 0.0 | 2.0 | 0.00 | 0.00 | 0.00 | 47 | 1008.7 |
| 20260830014852 | 88 | 266 | 1.0 | 2.0 | 0.00 | 0.00 | 0.00 | 46 | 1008.7 |
| 20260830014354 | 89 | 273 | 1.0 | 4.0 | 0.00 | 0.00 | 0.00 | 46 | 1008.6 |
| 20260830013852 | 89 | 257 | 1.0 | 4.0 | 0.00 | 0.00 | 0.00 | 46 | 1008.6 |
| 20260830013331 | 89 | 262 | 0.0 | 3.0 | 0.00 | 0.00 | 0.00 | 46 | 1008.7 |
| 20260830012850 | 90 | 268 | 2.0 | 4.0 | 0.00 | 0.00 | 0.00 | 46 | 1008.7 |
| 20260830012331 | 91 | 255 | 1.0 | 4.0 | 0.00 | 0.00 | 0.00 | 45 | 1008.6 |
| 20260830011835 | 92 | 143 | 1.0 | 3.0 | 0.00 | 0.00 | 0.00 | 45 | 1008.6 |
| 20260830011334 | 92 | 212 | 1.0 | 3.0 | 0.00 | 0.00 | 0.00 | 45 | 1008.6 |
| 20260830010834 | 91 | 266 | 0.0 | 4.0 | 0.00 | 0.00 | 0.00 | 45 | 1008.6 |
| 20260830010341 | 91 | 262 | 1.0 | 4.0 | 0.00 | 0.00 | 0.00 | 45 | 1008.6 |